KORONAS-FOTON

Last updated on Thu Oct 30 2025 00:02:15 GMT+0000 (Coordinated Universal Time)

1 33504U 09003A 25302.38870814 .00017687 00000+0 44526-3 0 9990 2 33504 82.4322 52.0000 0010634 268.3909 91.6118 15.39729020925512
UTC large
Height (km)
Speed (km/s)
/
Latitude / Longitude
Inclination (degrees)
Orbital Period (minutes)
Azimuth
Elevation
Range (km)
Doppler Factor

Next 0 passes for location: London (51.5072 / 0.1276)

Sorry there are no passes over London.